Погода в Райгородке

Украина / Луганская область     48°49′10″N   39°04′45″E
темп.,
°C
ветер,
м/с
пор.,
м/с
влажн.,
%
обл.,
%
осадки,
мм/ч
давл.,
гПа
погр.,
м
5 марта, пт
пт523:00+4юз8177544 0.0 1011679
02:00+3зюз8168571 0.0 1011600
05:00+3зюз71388100 0.0 1010682
08:00+4зюз71288100 0.0 1011664
11:00+5зюз61184100 0.0 1012697
14:00+5зюз5992100 0.1 1012627
17:00+4зсз2597100 1.2 1013256
20:00+3ссв1298100 2.5 101472
6 марта, сб
сб623:00+2св3498100 0.9 1013166
02:00+2св4598100 2.8 1012169
05:00+1ссв6898100 3.2 1010284
08:000ссв5898100 5.3 1010427
11:00+1с71094100 1.3 1012656
14:00+1ссз81088100 1.7 1014855
17:00−1сз8116796 0.1 10171035
20:00−2сз6126348 0.1 10201212
7 марта, вс
вс723:00−3сз711620 0.0 10211140
02:00−3сз69600 0.0 10231058
05:00−3зсз47640 0.0 1023869
08:00−2з58590 0.0 1024815
11:00+1зюз79500 0.0 10221459
14:00+2зюз8124829 0.0 10191518
17:000зюз6135478 0.0 1017794
20:00−1зюз7155677 0.0 1016864
8 марта, пн
пн823:000зюз815550 0.0 1015730
02:00−1зюз815620 0.0 1013702
05:00−1зюз8156841 0.0 1012726
08:00+1зюз9146367 0.0 10121271
11:00+3з91360100 0.0 10121405
14:00+3з81165100 0.0 10121300
17:00+1з4107292 0.0 1013431
20:00−1з347973 0.0 1015103
9 марта, вт
вт923:00−1юз2381100 0.0 101562
02:00−1юз2583100 0.0 1014247
05:00−1зюз2494100 0.1 1013236
08:000ююз2292100 0.4 1013248
11:00+2з6977100 0.8 1013889
14:00+2сз686397 0.9 10141374
17:00−1с6107579 0.2 1015766
20:00−3ссз376940 0.2 1019464